Weather History for KGSH - November, 2013

Change the Weather History Date:

Wednesday, November 6, 2013

  Actual Average Record
Temperature  
Mean Temperature 50 °F -  
Max Temperature 57 °F 51 °F 76 °F (1975)
Min Temperature 42 °F 34 °F 18 °F (1951)
Degree Days  
Heating Degree Days 16    
Moisture  
Dew Point 46 °F    
Average Humidity 86    
Maximum Humidity 94    
Minimum Humidity 56    
Precipitation  
Precipitation 0.23 in - - ()
Sea Level Pressure  
Sea Level Pressure 29.96 in    
Wind  
Wind Speed 16 mph (WSW)    
Max Wind Speed 24 mph    
Max Gust Speed 32 mph    
Visibility 7 miles    
Events Rain    
Averages and records for this station are not official NWS values.
T = Trace of Precipitation, MM = Missing Value Source: NWS Daily Summary

Daily Weather History Graph

Daily Weather History Graph

Search for Another Location

Airport or City:

Trip Planner

Search our weather history database for the weather conditions in past years. The results will help you decide how hot, cold, wet, or windy it might be!

Date:

Astronomy

Nov. 06, 2013 Rise Set
Actual Time 7:21 AM EST 5:31 PM EST
Civil Twilight 6:52 AM EST 6:00 PM EST
Nautical Twilight 6:19 AM EST 6:33 PM EST
Astronomical Twilight 5:46 AM EST 7:06 PM EST
Moon 10:36 AM EST (11/6) 8:34 PM EST (11/6)
Length of Visible Light 11h 08m
Length of Day
10h 10m
Waxing Crescent, 13% of the Moon is Illuminated
Nov 6
Waxing Crescent
Nov 10
First Quarter
Nov 17
Full
Nov 25
Last Quarter
Dec 2
New

Hourly Weather History & Observations

Time (EST) Temp. Windchill Dew Point Humidity Pressure Visibility Wind Dir Wind Speed Gust Speed Precip Events Conditions
12:53 AM 55.9 °F - 41.0 °F 57% 30.08 in 10.0 mi South 13.8 mph - N/A   Overcast
1:53 AM 55.9 °F - 42.1 °F 60% 30.05 in 10.0 mi South 13.8 mph - N/A   Overcast
2:53 AM 57.9 °F - 42.1 °F 56% 30.03 in 10.0 mi South 13.8 mph - N/A   Overcast
3:53 AM 57.9 °F - 44.1 °F 60% 29.99 in 10.0 mi South 16.1 mph 21.9 mph N/A   Overcast
4:53 AM 57.9 °F - 45.0 °F 62% 29.98 in 10.0 mi South 17.3 mph - 0.00 in   Overcast
5:53 AM 55.0 °F - 50.0 °F 83% 29.96 in 10.0 mi South 15.0 mph - 0.03 in Rain Light Rain
6:53 AM 55.0 °F - 50.0 °F 83% 29.94 in 10.0 mi South 19.6 mph 23.0 mph 0.02 in   Overcast
7:53 AM 55.0 °F - 50.0 °F 83% 29.93 in 10.0 mi SSW 19.6 mph 26.5 mph 0.01 in Rain Light Rain
8:49 AM 55.4 °F - 51.8 °F 88% 29.93 in 10.0 mi SSW 19.6 mph 27.6 mph 0.02 in Rain Light Rain
8:53 AM 55.9 °F - 51.1 °F 84% 29.93 in 10.0 mi SSW 20.7 mph 29.9 mph 0.02 in Rain Light Rain
9:53 AM 55.9 °F - 52.0 °F 87% 29.92 in 8.0 mi SSW 20.7 mph 32.2 mph 0.00 in Rain Light Rain
10:53 AM 55.9 °F - 52.0 °F 87% 29.90 in 5.0 mi SSW 19.6 mph 28.8 mph 0.03 in   Overcast
11:24 AM 55.4 °F - 51.8 °F 88% 29.90 in 2.5 mi SSW 18.4 mph 25.3 mph 0.02 in Rain Light Rain
11:37 AM 55.4 °F - 53.6 °F 94% 29.89 in 4.0 mi SSW 19.6 mph 26.5 mph 0.03 in Rain Light Rain
11:53 AM 55.0 °F - 53.1 °F 93% 29.89 in 4.0 mi SSW 19.6 mph 31.1 mph 0.04 in Rain Light Rain
12:08 PM 55.4 °F - 53.6 °F 94% 29.88 in 6.0 mi SSW 18.4 mph 27.6 mph 0.00 in Rain Light Rain
12:31 PM 55.4 °F - 51.8 °F 88% 29.87 in 6.0 mi SSW 24.2 mph 32.2 mph 0.01 in Rain Light Rain
12:53 PM 55.0 °F - 52.0 °F 89% 29.86 in 10.0 mi SSW 18.4 mph 29.9 mph 0.02 in Rain Light Rain
1:53 PM 55.9 °F - 52.0 °F 87% 29.86 in 10.0 mi SW 19.6 mph 29.9 mph 0.00 in   Overcast
2:53 PM 55.9 °F - 52.0 °F 87% 29.88 in 10.0 mi SW 20.7 mph 28.8 mph N/A   Overcast
3:07 PM 55.4 °F - 51.8 °F 88% 29.87 in 2.5 mi SW 15.0 mph 28.8 mph 0.01 in Rain Light Rain
3:18 PM 55.4 °F - 51.8 °F 88% 29.88 in 5.0 mi SW 18.4 mph - 0.01 in   Overcast
3:53 PM 55.0 °F - 53.1 °F 93% 29.88 in 6.0 mi SW 19.6 mph 27.6 mph 0.01 in   Overcast
4:28 PM 55.4 °F - 53.6 °F 94% 29.88 in 2.5 mi WSW 13.8 mph - 0.00 in Rain Light Rain
4:36 PM 53.6 °F - 51.8 °F 94% 29.89 in 3.0 mi West 17.3 mph 24.2 mph 0.00 in Rain Light Rain
4:53 PM 52.0 °F - 48.9 °F 89% 29.91 in 4.0 mi West 19.6 mph - 0.01 in   Overcast
5:00 PM 51.8 °F - 48.2 °F 88% 29.92 in 1.8 mi West 23.0 mph 28.8 mph N/A   Overcast
5:08 PM 48.2 °F - 46.4 °F 93% 29.92 in 1.5 mi NW 18.4 mph 32.2 mph 0.01 in Rain Light Rain
5:10 PM 48.2 °F - 46.4 °F 93% 29.92 in 1.5 mi NW 18.4 mph 32.2 mph 0.02 in Rain Light Rain
5:23 PM 46.4 °F 39.5 °F 44.6 °F 93% 29.94 in 2.0 mi WNW 17.3 mph 25.3 mph 0.03 in   Overcast
5:32 PM 46.4 °F 39.0 °F 44.6 °F 93% 29.95 in 4.0 mi WNW 19.6 mph - 0.03 in Rain Light Rain
5:41 PM 46.4 °F 38.7 °F 42.8 °F 87% 29.96 in 6.0 mi WNW 20.7 mph 28.8 mph 0.04 in Rain Light Rain
5:53 PM 46.0 °F 39.0 °F 42.1 °F 86% 29.96 in 10.0 mi NW 17.3 mph 26.5 mph 0.04 in   Overcast
6:14 PM 44.6 °F 38.1 °F 42.8 °F 93% 29.97 in 10.0 mi WNW 13.8 mph 23.0 mph N/A   Overcast
6:53 PM 45.0 °F 39.3 °F 42.1 °F 90% 30.00 in 10.0 mi WNW 11.5 mph - N/A   Overcast
7:17 PM 44.6 °F 37.4 °F 41.0 °F 87% 30.00 in 10.0 mi NW 16.1 mph 21.9 mph N/A   Overcast
7:41 PM 44.6 °F 39.2 °F 41.0 °F 87% 30.02 in 6.0 mi WNW 10.4 mph - N/A   Overcast
7:53 PM 44.1 °F 37.4 °F 41.0 °F 89% 30.04 in 10.0 mi WNW 13.8 mph - N/A   Overcast
8:30 PM 42.8 °F 37.0 °F 41.0 °F 93% 30.03 in 10.0 mi WNW 10.4 mph - N/A   Overcast
8:40 PM 42.8 °F 35.4 °F 41.0 °F 93% 30.03 in 7.0 mi WNW 15.0 mph 21.9 mph N/A   Overcast
8:53 PM 43.0 °F 37.2 °F 41.0 °F 93% 30.04 in 9.0 mi WNW 10.4 mph 19.6 mph N/A   Overcast
9:15 PM 42.8 °F 36.2 °F 39.2 °F 87% 30.03 in 10.0 mi NW 12.7 mph - N/A   Overcast
9:53 PM 43.0 °F 38.2 °F 39.9 °F 89% 30.07 in 10.0 mi WNW 8.1 mph - N/A   Overcast
10:07 PM 42.8 °F 37.5 °F 39.2 °F 87% 30.06 in 10.0 mi WNW 9.2 mph - N/A   Overcast
10:19 PM 42.8 °F 38.0 °F 39.2 °F 87% 30.06 in 10.0 mi WNW 8.1 mph - N/A   Overcast
10:50 PM 42.8 °F 36.6 °F 39.2 °F 87% 30.06 in 10.0 mi WNW 11.5 mph - N/A   Overcast
10:53 PM 43.0 °F 37.7 °F 39.0 °F 86% 30.07 in 10.0 mi WNW 9.2 mph - N/A   Overcast
11:53 PM 42.1 °F 37.1 °F 37.9 °F 85% 30.08 in 10.0 mi WNW 8.1 mph - N/A   Overcast